ニート彗星

246P/NEAT (2021)

English version
Home page
Updated on June 13, 2020

---------------------------------------------------------------------

・ プロフィール

・ 写真集

・ 軌道要素

Epoch 2021 Mar. 7.0 TT = JDT 2459280.5
T 2021 Feb. 22.81685 TT                                 Rudenko
q   2.8639223            (2000.0)            P               Q
n   0.12245324     Peri.  176.29990     -0.25557217     +0.92828725
a   4.0162665      Node    78.74749     -0.89393253     -0.12049337
e   0.2869192      Incl.   15.98680     -0.36819492     -0.35180127
P   8.05
From 2874 observations 2003 Jan. 24-2019 May 31, mean residual 0".6.

・ 星図

・ 光度変化

        m1 = -17.5 + 5 logΔ + 50   log r(t - 200)  [    ,-460]  (              〜2019年11月20日)
        m1 =   0.0 + 5 logΔ + 25.0 log r(t + 85)   [-460, 130]  (2019年11月20日〜2021年 7月 2日)
        m1 =   5.2 + 5 logΔ + 15.0 log r           [ 130,    ]  (2021年 7月 2日〜              )

---------------------------------------------------------------------

軌道要素はM.P.E.C. 2020-F67に掲載されたものです。
星図はステラナビゲータ Ver.10 (アストロアーツ) で作成したものです。
光度グラフはComet for Windowsで作成したものです。

---------------------------------------------------------------------

Copyright(C) Seiichi Yoshida (comet@aerith.net). All rights reserved.